一网星座-0229星 (ONEWEB-0229 )

导读 | 星芒AI

ONEWEB-0229 是 OneWeb 卫星星座计划中的一颗低轨通信卫星,旨在为全球提供高速互联网服务。该卫星采用标准化设计,由阿丽亚娜航天公司制造,搭载星间激光通信技术,以提升数据传输效率。它于2022年发射,运行在约1200公里高度的近极地轨道,与其他 OneWeb 卫星共同构建覆盖全球的宽带网络,重点服务于偏远和网络基础设施薄弱的地区。

基本信息
目录编号:
48779
目录名称:
ONEWEB-0229
国际标识:
2021-045N
轨道中心:
EARTH
卫星名称:
一网星座-0229星
卫星全名:
一网星座-0229星 (ONEWEB-0229 )
卫星状态:
在轨 (已飞行1662 天)
发射日期:
2021-05-28 UTC
国别 :
英国 (GB)
星等 :
--
轨道信息
数据来源 国际轨道数据
星历时间: 2025-12-15T06:14:50+0800
20小时前
查看轨道信息
半长轴: 7579.909km
偏心率: 0.0001988
轨道倾角: 87.899°
近地点辐角 78.418°
升交点赤经 295.952°
平近点角 281.718°
近地点: 1200.267km
远地点: 1203.281km
周期: 109.460分钟
每日圈数: 13.155483
详细信息
平衡模式:
三轴稳定
覆盖范围:
全球
运营商:
一网卫星公司
运营商所在国:
英国
制造商(研发单位):
一网卫星公司
制造商所在国:
英国
使用方式:
暂无
卫星简介
OneWeb卫星网络由648颗重约125公斤的微型卫星组成,运行在1200公里的轨道上。 每颗卫星都能够提供至少每秒8千兆位的吞吐量,以使用其高吞吐量的Ku频段有效载荷为家庭和移动平台提供互联网接入。该卫星仍在工作。
2D轨道图
3D轨道图
轨道高度分析图
轨道倾角分析图
轨道综合分析图
查看轨道综合分析图